| time (UTC) | temp C | wind direction | speed KPH | gust KPH | rain 1hr cm | rain 24hr cm | rain mn cm | humidity % | barometer mb |
| 20260510043127 | 24 | 122 | 1.6 | 6.4 | 0.00 | 2.34 | 2.34 | 83 | 1012.7 |
| 20260510041553 | 24 | 118 | 4.8 | 8.0 | 0.00 | 2.34 | 2.34 | 82 | 1012.4 |
| 20260510040052 | 24 | 120 | 1.6 | 6.4 | 0.00 | 2.34 | 2.34 | 81 | 1012.5 |
| 20260510034553 | 24 | 110 | 3.2 | 4.8 | 0.00 | 2.34 | 2.34 | 80 | 1012.4 |
| 20260510033050 | 24 | 123 | 3.2 | 8.0 | 0.00 | 2.34 | 2.34 | 80 | 1012.6 |
| 20260510031613 | 22 | 120 | 1.6 | 4.8 | 0.00 | 2.34 | 2.34 | 87 | 1012.3 |
| 20260510030052 | 21 | 140 | 0.0 | 1.6 | 0.00 | 2.34 | 2.34 | 91 | 1012.2 |
| 20260510024550 | 21 | 0 | 0.0 | 1.6 | 0.00 | 2.34 | 2.34 | 91 | 1011.6 |
| 20260510023053 | 21 | 0 | 0.0 | 1.6 | 0.00 | 2.34 | 2.34 | 91 | 1011.4 |
| 20260510021547 | 21 | 0 | 0.0 | 1.6 | 0.00 | 2.34 | 2.34 | 92 | 1011.1 |
| 20260510020049 | 21 | 122 | 1.6 | 3.2 | 0.00 | 2.34 | 2.34 | 93 | 1010.3 |
| 20260510014544 | 21 | 0 | 0.0 | 1.6 | 0.00 | 2.34 | 2.34 | 94 | 1010.0 |
| 20260510013049 | 21 | 0 | 0.0 | 0.0 | 0.00 | 2.34 | 2.34 | 94 | 1009.8 |
| 20260510011606 | 20 | 149 | 0.0 | 3.2 | 0.10 | 2.34 | 2.34 | 94 | 1009.8 |
| 20260510010104 | 20 | 144 | 0.0 | 1.6 | 0.30 | 2.34 | 2.34 | 94 | 1009.9 |
| 20260510004544 | 20 | 145 | 0.0 | 1.6 | 1.02 | 2.34 | 2.34 | 93 | 1009.5 |
| 20260510003058 | 19 | 0 | 0.0 | 8.0 | 1.65 | 2.34 | 2.34 | 91 | 1009.5 |
| 20260510001552 | 19 | 147 | 0.0 | 17.7 | 2.24 | 2.24 | 2.24 | 91 | 1010.3 |
| 20260510000049 | 20 | 0 | 1.6 | 19.3 | 1.98 | 1.98 | 1.98 | 87 | 1010.5 |
| 20260509234546 | 21 | 148 | 1.6 | 11.3 | 1.27 | 1.27 | 1.27 | 82 | 1010.3 |
| 20260509233047 | 23 | 113 | 1.6 | 22.5 | 0.66 | 0.66 | 0.66 | 69 | 1009.4 |
| 20260509231550 | 28 | 125 | 4.8 | 14.5 | 0.00 | 0.00 | 0.00 | 71 | 1009.2 |
| 20260509230050 | 30 | 109 | 4.8 | 9.7 | 0.00 | 0.00 | 0.00 | 63 | 1008.9 |
| 20260509224551 | 31 | 124 | 1.6 | 3.2 | 0.00 | 0.00 | 0.00 | 59 | 1008.8 |
| 20260509223047 | 31 | 0 | 0.0 | 1.6 | 0.00 | 0.00 | 0.00 | 59 | 1008.7 |
| 20260509221549 | 31 | 0 | 0.0 | 1.6 | 0.00 | 0.00 | 0.00 | 60 | 1008.5 |
| 20260509220052 | 31 | 0 | 1.6 | 3.2 | 0.00 | 0.00 | 0.00 | 58 | 1008.6 |
| 20260509214547 | 32 | 0 | 0.0 | 6.4 | 0.00 | 0.00 | 0.00 | 58 | 1008.8 |
| 20260509213100 | 32 | 147 | 0.0 | 3.2 | 0.00 | 0.00 | 0.00 | 60 | 1008.5 |
| 20260509211608 | 32 | 150 | 0.0 | 3.2 | 0.00 | 0.00 | 0.00 | 59 | 1008.6 |
| 20260509210056 | 32 | 0 | 0.0 | 3.2 | 0.00 | 0.00 | 0.00 | 58 | 1008.9 |
| 20260509204559 | 33 | 139 | 0.0 | 1.6 | 0.00 | 0.00 | 0.00 | 55 | 1009.1 |
| 20260509203055 | 32 | 0 | 0.0 | 6.4 | 0.00 | 0.00 | 0.00 | 57 | 1009.3 |
| 20260509201547 | 32 | 152 | 1.6 | 9.7 | 0.00 | 0.00 | 0.00 | 59 | 1009.4 |
| 20260509200050 | 32 | 136 | 0.0 | 4.8 | 0.00 | 0.00 | 0.00 | 62 | 1009.6 |
| 20260509194550 | 31 | 149 | 3.2 | 11.3 | 0.00 | 0.03 | 0.00 | 62 | 1009.9 |
| 20260509193051 | 30 | 148 | 3.2 | 8.0 | 0.00 | 0.03 | 0.00 | 64 | 1009.9 |
| 20260509191550 | 30 | 167 | 3.2 | 8.0 | 0.00 | 0.03 | 0.00 | 66 | 1009.9 |
| 20260509190049 | 30 | 117 | 0.0 | 4.8 | 0.00 | 0.03 | 0.00 | 65 | 1009.9 |
| 20260509184546 | 29 | 0 | 0.0 | 6.4 | 0.00 | 0.08 | 0.00 | 68 | 1010.1 |
| 20260509183053 | 30 | 149 | 1.6 | 6.4 | 0.00 | 0.08 | 0.00 | 68 | 1010.3 |
| 20260509181604 | 30 | 129 | 1.6 | 8.0 | 0.00 | 0.08 | 0.00 | 66 | 1010.5 |
| 20260509180048 | 29 | 126 | 3.2 | 11.3 | 0.00 | 0.08 | 0.00 | 65 | 1010.9 |
| 20260509174556 | 30 | 133 | 3.2 | 14.5 | 0.00 | 0.15 | 0.00 | 70 | 1011.2 |
| 20260509173047 | 28 | 85 | 4.8 | 11.3 | 0.00 | 0.15 | 0.00 | 72 | 1011.3 |
| 20260509171556 | 28 | 123 | 4.8 | 11.3 | 0.00 | 0.15 | 0.00 | 75 | 1011.6 |
| 20260509170048 | 27 | 0 | 0.0 | 3.2 | 0.00 | 0.15 | 0.00 | 80 | 1011.9 |
| 20260509164547 | 27 | 0 | 1.6 | 4.8 | 0.00 | 0.18 | 0.00 | 84 | 1011.9 |
| 20260509163055 | 26 | 139 | 0.0 | 0.0 | 0.00 | 0.18 | 0.00 | 86 | 1011.9 |
| 20260509161550 | 26 | 149 | 1.6 | 3.2 | 0.00 | 0.18 | 0.00 | 86 | 1011.8 |
| 20260509160046 | 26 | 146 | 1.6 | 3.2 | 0.00 | 0.18 | 0.00 | 86 | 1011.8 |
| 20260509154552 | 26 | 143 | 0.0 | 1.6 | 0.00 | 0.18 | 0.00 | 86 | 1011.7 |
| 20260509153050 | 25 | 0 | 0.0 | 1.6 | 0.00 | 0.18 | 0.00 | 89 | 1011.5 |
| 20260509151545 | 25 | 124 | 0.0 | 1.6 | 0.00 | 0.18 | 0.00 | 90 | 1011.7 |
| 20260509150049 | 25 | 124 | 1.6 | 6.4 | 0.00 | 0.18 | 0.00 | 90 | 1011.6 |
| 20260509144548 | 24 | 128 | 0.0 | 1.6 | 0.00 | 0.18 | 0.00 | 92 | 1011.4 |
| 20260509143054 | 24 | 0 | 0.0 | 1.6 | 0.00 | 0.18 | 0.00 | 94 | 1011.2 |
| 20260509141549 | 23 | 0 | 0.0 | 1.6 | 0.00 | 0.18 | 0.00 | 94 | 1010.8 |
| 20260509140050 | 23 | 0 | 0.0 | 3.2 | 0.00 | 0.18 | 0.00 | 94 | 1010.5 |
| 20260509134554 | 23 | 124 | 0.0 | 3.2 | 0.00 | 0.18 | 0.00 | 95 | 1011.0 |
| 20260509133100 | 23 | 127 | 0.0 | 3.2 | 0.00 | 0.18 | 0.00 | 95 | 1011.5 |
| 20260509131551 | 23 | 0 | 0.0 | 1.6 | 0.00 | 0.18 | 0.00 | 96 | 1011.8 |
| 20260509130049 | 23 | 137 | 0.0 | 1.6 | 0.00 | 0.18 | 0.00 | 96 | 1011.9 |
| 20260509124549 | 23 | 124 | 0.0 | 6.4 | 0.00 | 0.18 | 0.00 | 96 | 1011.2 |
| 20260509123047 | 23 | 0 | 0.0 | 1.6 | 0.00 | 0.18 | 0.00 | 96 | 1011.6 |
| 20260509121549 | 23 | 0 | 0.0 | 0.0 | 0.00 | 0.18 | 0.00 | 96 | 1011.5 |
| 20260509120051 | 23 | 0 | 0.0 | 3.2 | 0.00 | 0.18 | 0.00 | 95 | 1011.5 |
| 20260509114558 | 23 | 152 | 1.6 | 3.2 | 0.00 | 0.18 | 0.00 | 96 | 1011.2 |
| 20260509113047 | 22 | 0 | 0.0 | 0.0 | 0.00 | 0.18 | 0.00 | 95 | 1011.1 |
| 20260509111544 | 23 | 0 | 0.0 | 0.0 | 0.00 | 0.18 | 0.00 | 95 | 1010.8 |
| 20260509110048 | 23 | 0 | 0.0 | 3.2 | 0.00 | 0.18 | 0.00 | 95 | 1010.9 |
| 20260509104549 | 22 | 136 | 0.0 | 1.6 | 0.00 | 0.18 | 0.00 | 95 | 1010.5 |
| 20260509103052 | 22 | 0 | 0.0 | 0.0 | 0.00 | 0.18 | 0.00 | 95 | 1010.6 |
| 20260509101549 | 23 | 0 | 0.0 | 0.0 | 0.00 | 0.18 | 0.00 | 95 | 1010.7 |
| 20260509094547 | 23 | 0 | 0.0 | 1.6 | 0.00 | 0.18 | 0.00 | 95 | 1010.1 |
| 20260509093047 | 23 | 0 | 0.0 | 0.0 | 0.00 | 0.18 | 0.00 | 95 | 1010.1 |
| 20260509091550 | 23 | 136 | 0.0 | 1.6 | 0.00 | 0.18 | 0.00 | 95 | 1010.2 |
| 20260509090046 | 23 | 0 | 0.0 | 1.6 | 0.00 | 0.18 | 0.00 | 95 | 1010.7 |
| 20260509084550 | 23 | 136 | 0.0 | 1.6 | 0.00 | 0.18 | 0.00 | 95 | 1010.6 |
| 20260509083054 | 23 | 0 | 0.0 | 1.6 | 0.00 | 0.18 | 0.00 | 94 | 1010.5 |
| 20260509081550 | 23 | 132 | 0.0 | 0.0 | 0.00 | 0.18 | 0.00 | 94 | 1010.3 |
| 20260509080129 | 23 | 0 | 0.0 | 1.6 | 0.00 | 0.18 | 0.00 | 94 | 1010.2 |
| 20260509074550 | 23 | 122 | 1.6 | 6.4 | 0.00 | 0.18 | 0.00 | 94 | 1010.3 |
| 20260509073149 | 23 | 118 | 3.2 | 9.7 | 0.00 | 0.18 | 0.00 | 94 | 1010.2 |
| 20260509071551 | 23 | 124 | 0.0 | 1.6 | 0.00 | 0.18 | 0.00 | 94 | 1010.7 |
| 20260509070051 | 23 | 126 | 0.0 | 3.2 | 0.00 | 0.18 | 0.00 | 94 | 1010.9 |
| 20260509064552 | 23 | 0 | 0.0 | 0.0 | 0.00 | 0.18 | 0.00 | 94 | 1011.2 |
| 20260509063052 | 23 | 0 | 0.0 | 0.0 | 0.00 | 0.18 | 0.00 | 94 | 1011.0 |
| 20260509061556 | 23 | 0 | 0.0 | 0.0 | 0.00 | 0.18 | 0.00 | 94 | 1011.0 |
| 20260509060051 | 23 | 0 | 0.0 | 0.0 | 0.00 | 0.18 | 0.00 | 94 | 1011.1 |
| 20260509054559 | 23 | 0 | 0.0 | 1.6 | 0.00 | 0.18 | 0.00 | 94 | 1011.1 |
| 20260509053054 | 23 | 124 | 0.0 | 3.2 | 0.00 | 0.18 | 0.00 | 93 | 1011.2 |
| 20260509051556 | 23 | 127 | 0.0 | 1.6 | 0.00 | 0.18 | 0.00 | 93 | 1010.9 |
| 20260509050047 | 23 | 0 | 0.0 | 3.2 | 0.00 | 0.18 | 0.00 | 93 | 1011.3 |
| 20260509044546 | 23 | 0 | 0.0 | 3.2 | 0.00 | 0.18 | 0.18 | 93 | 1011.2 |